Regional Weather Roundup
Issued by NWS

Home | Current Version | Previous Version | Text Only | Print | Product List | Glossary On
Versions: 1 2 3 4 5 6 7 8 9 10 11 12 13 14 15 16 17 18 19 20 21 22 23 24 25 26 27 28 29 30 31 32 33 34 35 36 37 38 39 40 41 42 43 44 45 46 47 48 49 50
000
ASUS43 KMKX 241200
RWRWI

WISCONSIN REGIONAL WEATHER ROUNDUP
NATIONAL WEATHER SERVICE MILWAUKEE/SULLIVAN WI
600 AM CST FRI FEB 24 2017

NOTE: "FAIR" INDICATES FEW OR NO CLOUDS BELOW 12,000 FEET WITH NO
SIGNIFICANT WEATHER AND/OR OBSTRUCTIONS TO VISIBILITY.

WIZ001-002-006>008-014>016-023>028-241300-
NORTHWEST WISCONSIN

CITY           SKY/WX    TMP DP  RH WIND       PRES   REMARKS
SUPERIOR ARPT  CLOUDY    23  14  69 NE9       29.98S WCI  13
ASHLAND        FLURRIES  25  19  78 N20G26    29.95R WCI  11
6HR MIN TEMP:  25; 6HR MAX TEMP:  28; 6HR PCP: TRACE;

HAYWARD        CLOUDY    25  19  78 NE14G26   29.87F WCI  13
6HR MIN TEMP:  25; 6HR MAX TEMP:  27;

SIREN          CLOUDY    25  17  70 N15G21    29.88F WCI  12
CUMBERLAND     CLOUDY    27  18  69 N10G17    29.81F WCI  17
RICE LAKE      FLURRIES  28  20  71 N16       29.83F WCI  17
CHETEK         LGT SNOW  26  24  90 NE7G18    29.82F VSB 3/4 WCI  19
LADYSMITH      LGT SNOW  28  23  81 NE12      29.83F WCI  18
EAU CLAIRE     SNOW      27  26  96 N12       29.77F VSB 1/2 WCI  17
MENOMONIE      LGT SNOW  28  27  96 N13G20    29.80F VSB 3/4 WCI  17
NEW RICHMOND   CLOUDY    27  18  69 N15G23    29.82F WCI  15
OSCEOLA        CLOUDY    27  18  70 N12       29.87F WCI  16
$$

WIZ003>005-009-010-017-018-241300-
NORTH CENTRAL WISCONSIN

CITY           SKY/WX    TMP DP  RH WIND       PRES   REMARKS
MANITOWISH WTR CLOUDY    22  22 100 N10G24    29.81F WCI  11
ARBOR VITAE    CLOUDY    25  23  93 N9G22       N/A  WCI  15
WOODRUFF       CLOUDY    25  23  93 N9G22       N/A  WCI  15
RHINELANDER    LGT SNOW  27  25  92 NE9       29.79R VSB 3/4 WCI  18
6HR MIN TEMP:  27; 6HR MAX TEMP:  29; 6HR PCP:  0.09;

EAGLE RIVER    LGT SNOW  24  23  97 NE21G30   29.75F WCI   9
LAND O LAKES   CLOUDY    23  22  94 NE15G21   29.84R WCI  10
PHILLIPS       LGT SNOW  25  23  91 NE13      29.83R WCI  14
TOMAHAWK       LGT SNOW  26  24  91 N8        29.80R WCI  18
MEDFORD        LGT SNOW  26  24  94 N13       29.75F VSB 3/4 WCI  15
MERRILL        NOT AVBL
$$

WIZ029-030-035-036-043>047-241300-
CENTRAL WISCONSIN

CITY           SKY/WX    TMP DP  RH WIND       PRES   REMARKS
WAUSAU         SNOW      27  25  92 N9        29.73F VSB 1/2 WCI  18
6HR MIN TEMP:  27; 6HR MAX TEMP:  33; 6HR PCP:  0.33;

MOSINEE        TSTM      27  27 100 N13       29.75R VSB 3/4 WCI  16
MARSHFIELD     FOG       27  24  89 N13       29.72F VSB 3/4 WCI  16
6HR MIN TEMP:  27; 6HR MAX TEMP:  31; 6HR PCP:  0.27;

STEVENS POINT  MIX PCPN  26  26  97 NE13G21   29.71R WCI  15
WAUPACA        LGT SNOW  31  28  87 NE13G20   29.69R WCI  21
WAUTOMA        LGT SNOW  29  27  92 NE14G22   29.70R FOG     WCI  18
6HR MIN TEMP:  29; 6HR MAX TEMP:  32; 6HR PCP:  0.12;

WISC RAPIDS    LGT SNOW  28  27  96 NE9       29.73F VSB 1   WCI  19
6HR MIN TEMP:  28; 6HR MAX TEMP:  34; 6HR PCP:  0.28;

CAMP DOUGLAS   LGT SNOW  28  27  93 N12       29.70F FOG     WCI  18
$$

WIZ011>013-019>022-031-037>040-048>050-241300-
NORTHEAST WISCONSIN

CITY           SKY/WX    TMP DP  RH WIND       PRES   REMARKS
ANTIGO         LGT SNOW  26  24  95 NE8       29.75R WCI  17
SHAWANO        CLOUDY    30  28  90 NE16G25   29.70F WCI  19
OCONTO         CLOUDY    29  26  91 NE15G23   29.73F WCI  17
STURGEON BAY   LGT SNOW  30  29  96 NE18G30   29.70F FOG     WCI  18
6HR MIN TEMP:  29; 6HR MAX TEMP:  33; 6HR PCP:  0.06;

GREEN BAY      LGT SNOW  30  30 100 NE24      29.67F FOG     WCI  16
6HR MIN TEMP:  30; 6HR MAX TEMP:  34; 6HR PCP:  0.15;

MANITOWOC      NOT AVBL
APPLETON       CLOUDY    28  28 100 NE20G30   29.61F FOG     WCI  15
CLINTONVILLE   LGT SNOW  30  27  86 NE14G23   29.67F WCI  20
OSHKOSH        CLOUDY    32  27  81 NE12G33   29.67R WCI  23
6HR MIN TEMP:  30; 6HR MAX TEMP:  32; 6HR PCP:  0.16;

$$

WIZ032>034-041-042-053>061-241300-
SOUTHWEST WISCONSIN

CITY           SKY/WX    TMP DP  RH WIND       PRES   REMARKS
LA CROSSE      LGT SNOW  32  28  85 N14       29.69F FOG     WCI  22
6HR MIN TEMP:  32; 6HR MAX TEMP:  35; 6HR PCP:  0.25;

SPARTA         LGT SNOW  30  30  99 NE10      29.71F WCI  21
VIROQUA        CLOUDY    29  29  97 NE18G26   29.64F WCI  17
BOSCOBEL       CLOUDY    33  29  85 NE12G24   29.61F WCI  24
6HR MIN TEMP:  33; 6HR MAX TEMP:  35; 6HR PCP:  0.27;

PRAIRIE DU CHI MIX PCPN  32  31  98 N9G20     29.60F WCI  24
PLATTEVILLE    CLOUDY    33  33 100 NE16      29.53F WCI  22
$$

WIZ056-057-062-063-064-067-068-241300-
SOUTH CENTRAL WISCONSIN

CITY           SKY/WX    TMP DP  RH WIND       PRES   REMARKS
REEDSBURG      LGT RAIN  29  29 100 NE10      29.65F WCI  20
BARABOO/DELLS  LGT SNOW  29  28  95 NE10G18   29.64S WCI  20
LONE ROCK      NOT AVBL
MINERAL POINT  LGT RAIN  34  34 100 NE8       29.53F WCI  27
MADISON        LGT RAIN  32  30  92 N16       29.59R FOG     WCI  21
6HR MIN TEMP:  32; 6HR MAX TEMP:  33; 6HR PCP:  0.37;

MIDDLETON      CLOUDY    33  33 100 NE13      29.61R WCI  24
WATERTOWN      MIX PCPN  33  33 100 NE18G25   29.56S WCI  22
MONROE         MIX PCPN  32  32 100 NE24      29.50F WCI  19
JANESVILLE     CLOUDY    36  36 100 NE15G21   29.52F WCI  26
$$

WIZ051-052-058>065-066-070>072-241300-
SOUTHEAST WISCONSIN

CITY           SKY/WX    TMP DP  RH WIND       PRES   REMARKS
MILWAUKEE      LGT RAIN  36  33  89 NE17G29   29.59R FOG     WCI  26
6HR MIN TEMP:  35; 6HR MAX TEMP:  39; 6HR PCP:  0.85;

WAUKESHA       LGT RAIN  30  30 100 NE21G35   29.59F FOG     WCI  17
MILWAUKEE/TIMM RAIN      32  32 100 NE16G30   29.60F WCI  21
RACINE         LGT SNOW  36  34  92 NE22G30   29.58F FOG     WCI  25
6HR MIN TEMP:  36; 6HR MAX TEMP:  37; 6HR PCP:  0.30;

KENOSHA        LGT RAIN  37  34  89 NE22      29.55F WCI  26
6HR MIN TEMP:  36; 6HR MAX TEMP:  37; 6HR PCP:  0.21;

FOND DU LAC    CLOUDY    33  27  78 NE17G26   29.65R WCI  22
6HR MIN TEMP:  32; 6HR MAX TEMP:  33; 6HR PCP:  0.26;

SHEBOYGAN      FRZ RAIN  32  32 100 NE31G40   29.62F WCI  17
6HR MIN TEMP:  32; 6HR MAX TEMP:  33; 6HR PCP:  0.37;

WEST BEND      LGT RAIN  32  32 100 NE16G29   29.59F WCI  21
JUNEAU         MIX PCPN  32  29  91 NE12G25   29.59F WCI  23
$$

LSZ147-162-241300-
LAKE SUPERIOR

STATION/POSITION TIME  TEMP    WIND        PRES    WAVE
                       AIR SEA DIR/SP/G            HT/PER
                 (UTC) (F)     (DEG/KT/KT) (MB)    (FT/S)
DEVILS ISLAND    1100   23      30/ 24/ 27 1016.2R
PORT WING        1140   25      50/ 17/ 25 1015.2R
SAXON HARBOR     1130   27      50/ 24/ 29 1013.5R
$$

LMZ867-665-643>646-241300-
LAKE MICHIGAN

STATION/POSITION TIME  TEMP    WIND        PRES    WAVE
                       AIR SEA DIR/SP/G            HT/PER
                 (UTC) (F)     (DEG/KT/KT) (MB)    (FT/S)
CHAMBERS ISLAND  1140   29      20/ 23/ 31 1007.5F
NORTHPORT PIER   1140   30      50/ 20/ 26 1007.8F
SISTER BAY       1050   29      20/  5/ 12   N/A
KEWAUNEE LAKESHO 1130   32      60/ 21/ 29 1005.3F
SHEBOYGAN LAKESH 1100   33      30/ 33/ 37 1004.9F
PORT WASHINGTON  1130   35      40/ 27/ 33 1003.7F
MILWAUKEE LAKESH 1130   35      30/ 23/ 26   N/A
KENOSHA   LAKESH 1100   36      20/ 20/ 23 1001.0
$$

TC  - TEMPERATURE IN CELSIUS
VSB - VISIBILITY IN STATUTE MILES
WCI - WIND CHILL INDEX
HX  - HEAT INDEX




USA.gov is the U.S. government's official web portal to all federal, state and local government web resources and services.